Location: C�an Torras
(41.5052°N, 1.9280°E)
Time: 21:15:18
(UTC+00:00)

Iridium 4 Rocket - Pass Details

Date: 20 January 2021
Orbit: 583 x 906 km, 86.9° (Epoch: 02 March)

Event Time Altitude Azimuth Distance (km) Brightness Sun altitude
Rises 18:40:02 0° 1° (N) 3,486 6.8 -19.7°
Reaches altitude 10° 18:42:35 10° 5° (N) 2,512 6.0 -20.2°
Maximum altitude 18:48:11 59° 85° (E) 940 3.6 -21.3°
Drops below altitude 10° 18:53:19 10° 165° (SSE) 2,303 5.9 -22.2°
Sets 18:55:35 0° 169° (S) 3,175 6.7 -22.6°
